Temp
62 62 62 62 62 62 62 62 62 62 62 62 62 62 62 62 62 62 65 79 77 79 81 82 81 82 84 79 84 78 62 64 70 72 74 82 77 83 85 78 81 82 78 81 83
61 61 61 62 62 62 62 61 62 62 62 62 62 62 62 62 59 62 79 80 79 79 82 82 79 81 76 79 79 71 61 70 81 82 79 83 81 81 78 76 76 77 82 84 83
61 61 61 62 62 62 61 61 61 61 61 61 62 62 62 62 61 73 82 80 80 81 87 87 85 83 76 77 81 77 71 79 84 85 87 82 82 84 76 71 75 74 77 81 81
61 61 61 61 61 61 61 61 61 61 61 61 62 63 63 59 63 85 82 79 81 83 85 82 79 73 76 74 83 76 82 84 83 86 86 82 84 79 79 76 81 81 81 81 80
60 60 60 60 60 61 61 61 61 61 61 61 62 63 59 58 67 86 82 80 80 82 81 79 75 74 72 79 80 77 81 86 90 88 88 89 84 79 79 81 83 83 82 80 80
60 59 59 60 60 60 60 60 60 60 61 61 62 63 57 56 82 87 83 81 82 81 79 80 77 79 76 78 76 81 84 84 87 88 90 85 81 80 79 82 81 81 80 81 80
59 59 59 59 60 60 60 60 60 60 61 62 62 65 60 65 82 83 79 78 81 80 78 81 83 75 77 76 87 82 76 80 83 84 84 87 74 74 80 81 79 80 81 82 81
59 59 59 59 59 59 59 59 60 61 62 63 63 61 54 77 76 81 80 79 84 81 82 84 84 78 75 82 80 75 69 64 78 84 84 79 66 77 81 79 77 80 81 82 81
58 58 58 58 59 59 58 58 61 64 65 64 56 56 57 80 79 79 82 82 82 83 82 93 83 76 76 68 64 67 60 64 72 84 83 76 67 77 81 79 77 79 80 81 81
58 58 58 58 58 58 58 59 62 62 66 68 71 57 66 75 81 85 83 87 82 80 80 79 72 66 64 61 54 63 64 61 68 78 76 73 71 77 79 78 77 78 80 80 80
58 58 58 58 58 58 55 53 63 58 62 59 61 65 71 79 85 80 82 82 80 74 66 70 62 57 63 65 70 72 69 66 73 79 73 73 72 75 78 77 76 77 78 79 80
57 57 57 57 57 57 51 56 59 65 53 67 67 68 73 73 69 77 82 70 71 64 65 62 57 67 72 72 71 70 65 65 73 78 72 72 68 75 78 77 79 78 78 79 80
57 57 57 56 56 57 56 60 67 65 50 59 67 66 66 70 66 69 74 71 67 64 63 59 64 75 74 71 69 66 63 65 69 71 72 71 64 66 74 77 79 81 82 82 81
57 57 56 55 54 50 57 66 69 63 42 54 61 69 72 70 65 79 78 75 69 65 65 62 73 72 71 69 69 58 74 75 73 65 59 69 50 61 65 69 71 75 80 81 82
57 56 56 55 46 49 63 62 68 59 36 68 68 80 74 69 70 74 79 71 65 67 65 62 67 68 67 70 73 67 77 74 73 63 64 61 57 59 63 65 70 75 80 82 83
56 56 56 52 47 54 61 61 58 44 38 63 69 66 65 68 71 75 72 73 74 67 67 66 75 72 73 77 77 78 72 72 68 58 49 58 60 57 58 66 75 77 81 83 84
56 55 54 56 50 58 58 54 42 35 60 56 56 60 57 61 65 69 65 61 56 52 52 61 67 71 77 67 73 69 58 51 48 47 51 63 58 62 72 79 76 77 82 85 86
55 54 52 59 52 56 54 47 33 51 51 61 59 58 55 57 58 61 59 57 61 59 52 52 52 67 74 68 63 62 59 49 45 45 52 67 58 67 77 82 81 82 83 86 86
54 47 50 59 62 57 49 35 39 49 57 55 55 49 48 55 55 55 52 54 61 60 52 50 54 72 74 74 72 61 56 65 56 49 52 56 65 72 76 77 77 79 81 84 86
46 43 48 63 62 55 44 39 44 57 58 55 45 49 43 48 47 48 50 59 57 63 62 55 51 65 73 71 72 67 69 55 51 46 44 54 56 59 65 71 76 79 81 83 88
43 44 58 63 61 49 37 40 51 59 59 52 47 45 45 43 45 45 48 58 59 60 62 52 52 63 66 61 60 60 57 55 56 53 48 47 56 67 72 74 74 79 84 82 88
41 39 60 63 47 40 39 48 54 54 57 53 52 49 44 45 42 44 47 53 61 58 51 54 47 46 57 67 71 65 62 59 54 50 51 54 57 76 77 80 82 80 84 89 89
38 41 58 58 38 38 44 50 53 52 50 48 47 50 49 43 39 45 50 58 60 55 52 55 45 40 51 57 62 58 61 55 56 53 53 52 55 76 74 78 79 77 80 78 81
39 37 46 47 45 40 40 43 47 59 52 52 48 48 45 41 41 41 46 55 57 56 61 55 43 44 40 46 53 54 60 62 59 49 52 55 61 67 71 75 76 77 82 83 83
41 38 41 34 38 41 40 44 44 46 56 52 44 48 42 33 38 40 46 47 53 56 51 44 42 45 52 57 59 59 61 64 54 62 60 62 64 68 71 76 79 82 82 81 86
38 38 40 36 39 40 42 41 44 46 45 45 43 48 45 36 39 38 40 38 41 46 45 42 42 44 46 59 60 59 64 65 65 66 61 68 64 74 75 76 80 79 82 79 82
49 51 41 38 36 36 36 42 44 45 48 50 47 42 41 44 43 41 41 40 41 40 42 38 39 42 40 53 55 52 60 64 65 68 67 62 69 72 73 74 76 76 82 81 81
MSLP
1020.08 1019.50 1018.93 1018.42 1017.90 1017.39 1016.92 1016.46 1015.93 1015.30 1014.76 1014.21 1013.52 1012.98 1012.54 1012.19 1011.62 1011.27 1009.86 1006.43 1006.52 1006.59 1006.88 1007.54 1007.96 1007.68 1007.78 1007.73 1007.53 1008.14 1008.64 1007.95 1006.54 1005.57 1004.99 1005.11 1005.90 1006.90 1007.26 1008.05 1008.69 1008.92 1009.42 1010.32 1011.36
1020.16 1019.60 1018.94 1018.24 1017.53 1017.00 1016.49 1016.05 1015.65 1015.16 1014.61 1014.02 1013.52 1013.05 1012.57 1012.20 1011.71 1009.69 1005.31 1005.21 1005.65 1006.36 1006.85 1006.86 1007.19 1007.45 1007.43 1006.74 1006.64 1007.22 1007.18 1006.07 1004.35 1003.96 1003.76 1004.34 1005.04 1006.05 1007.62 1008.55 1009.02 1009.29 1010.06 1010.81 1011.51
1020.12 1019.51 1018.87 1018.14 1017.51 1016.77 1016.04 1015.48 1015.04 1014.67 1014.22 1013.78 1013.19 1012.61 1012.36 1012.12 1010.94 1006.48 1004.12 1004.48 1005.34 1005.97 1006.06 1006.18 1006.35 1006.82 1007.02 1006.07 1005.37 1005.36 1005.02 1004.00 1003.20 1003.10 1003.11 1004.02 1005.11 1005.68 1007.27 1008.73 1008.46 1009.07 1010.04 1010.85 1011.54
1020.05 1019.36 1018.71 1017.96 1017.19 1016.50 1015.85 1015.18 1014.54 1014.12 1013.79 1013.41 1012.98 1012.42 1011.89 1011.86 1009.04 1004.63 1004.17 1004.17 1004.87 1005.58 1005.92 1005.95 1006.16 1006.43 1006.24 1005.61 1004.29 1004.71 1003.50 1003.99 1003.00 1003.04 1003.00 1003.28 1004.59 1005.96 1006.10 1006.95 1007.88 1008.30 1009.11 1010.39 1011.35
1020.02 1019.33 1018.59 1017.74 1016.96 1016.12 1015.35 1014.75 1014.19 1013.70 1013.28 1012.98 1012.66 1012.24 1011.74 1010.98 1007.12 1004.28 1004.20 1004.35 1004.96 1005.62 1005.74 1005.96 1005.98 1006.05 1005.54 1004.74 1004.35 1004.09 1003.17 1002.50 1001.84 1002.10 1002.11 1002.78 1003.89 1005.10 1006.48 1007.16 1008.42 1009.12 1009.75 1010.41 1011.15
1019.97 1019.20 1018.41 1017.62 1016.72 1015.80 1014.89 1014.08 1013.58 1013.04 1012.68 1012.46 1012.31 1012.14 1011.82 1009.58 1004.63 1003.95 1004.29 1004.59 1004.72 1005.26 1005.45 1005.62 1005.31 1005.24 1005.30 1004.32 1004.34 1003.43 1002.86 1002.36 1001.75 1001.70 1002.13 1003.12 1004.41 1004.84 1006.76 1007.32 1008.62 1009.13 1009.75 1010.47 1010.96
1019.94 1019.12 1018.20 1017.29 1016.28 1015.33 1014.26 1013.48 1012.62 1012.22 1011.76 1011.75 1011.90 1011.82 1011.13 1006.62 1004.15 1004.02 1004.56 1004.55 1004.34 1004.47 1004.94 1004.94 1004.76 1005.41 1005.05 1004.60 1003.54 1003.45 1003.13 1002.10 1001.47 1001.48 1002.15 1003.63 1005.25 1005.54 1006.40 1007.34 1008.20 1008.96 1009.51 1010.20 1010.68
1019.79 1019.00 1018.12 1017.03 1016.08 1015.00 1013.64 1012.49 1011.48 1011.09 1010.62 1010.82 1011.36 1011.35 1009.37 1004.78 1004.38 1004.23 1003.89 1004.04 1003.85 1003.94 1004.16 1004.06 1004.67 1005.08 1005.14 1004.46 1003.99 1003.90 1003.55 1002.82 1001.94 1001.76 1002.20 1002.88 1005.50 1006.38 1007.01 1007.44 1008.32 1008.83 1009.15 1009.64 1010.18
1019.76 1018.89 1017.98 1016.93 1015.88 1014.88 1013.48 1011.69 1010.40 1010.29 1010.26 1010.51 1011.00 1010.75 1007.54 1004.24 1003.88 1002.97 1003.22 1003.56 1003.31 1003.70 1003.67 1003.67 1004.45 1004.97 1004.89 1005.03 1004.98 1004.61 1003.98 1003.27 1002.31 1002.12 1002.16 1003.04 1005.56 1006.49 1007.02 1007.41 1007.92 1008.40 1008.97 1009.32 1009.82
1019.65 1018.82 1017.94 1016.71 1015.57 1014.85 1013.09 1011.02 1009.54 1010.20 1010.25 1010.34 1009.96 1010.18 1006.58 1004.18 1003.24 1002.56 1002.35 1002.57 1003.06 1003.40 1003.54 1003.75 1004.31 1004.65 1005.06 1005.28 1005.08 1004.72 1004.15 1003.41 1002.83 1002.12 1002.67 1003.39 1004.87 1006.15 1006.76 1007.01 1007.44 1008.12 1008.65 1009.07 1009.42
1019.64 1018.74 1017.72 1016.41 1015.22 1014.37 1013.45 1011.83 1010.50 1010.24 1009.84 1009.68 1008.70 1007.94 1005.54 1004.45 1003.21 1002.73 1002.86 1002.65 1002.90 1003.56 1004.09 1004.06 1004.73 1005.10 1005.04 1005.24 1004.96 1004.49 1004.28 1004.09 1003.09 1002.47 1003.02 1003.84 1004.95 1005.89 1006.47 1007.06 1007.42 1007.88 1008.30 1008.64 1008.88
1019.54 1018.60 1017.50 1016.17 1014.94 1014.01 1013.77 1013.26 1012.30 1012.12 1009.40 1008.20 1007.10 1006.74 1005.24 1005.52 1005.08 1002.96 1002.84 1003.42 1003.19 1003.80 1004.36 1004.89 1004.85 1004.91 1004.96 1004.88 1004.79 1004.48 1004.44 1004.23 1003.68 1003.05 1003.40 1004.68 1005.99 1006.50 1006.79 1006.92 1006.80 1007.24 1007.54 1007.95 1008.41
1019.36 1018.47 1017.51 1016.04 1014.50 1013.62 1013.81 1012.63 1011.54 1011.24 1010.69 1007.08 1005.92 1005.06 1004.14 1004.56 1004.20 1003.15 1003.00 1003.14 1003.56 1003.92 1004.40 1004.84 1004.36 1004.52 1004.77 1004.51 1004.52 1004.12 1004.20 1004.22 1004.30 1004.08 1004.81 1005.86 1007.08 1007.06 1006.86 1006.72 1007.04 1006.77 1006.64 1007.17 1007.46
1019.01 1018.40 1017.54 1016.58 1014.51 1014.96 1013.36 1011.71 1011.32 1011.38 1011.10 1007.26 1004.66 1002.83 1002.88 1003.30 1003.12 1001.75 1002.00 1002.90 1003.26 1003.51 1004.26 1004.50 1003.84 1003.97 1004.03 1003.90 1004.08 1003.90 1003.48 1003.97 1004.28 1004.89 1005.52 1006.20 1007.85 1007.53 1007.12 1006.72 1006.36 1006.70 1006.57 1006.44 1006.70
1018.70 1018.17 1017.72 1017.51 1016.83 1015.45 1012.64 1011.84 1011.51 1011.41 1010.19 1005.54 1003.43 1001.44 1001.73 1002.48 1001.86 1001.05 1001.29 1002.38 1002.97 1003.32 1003.80 1003.34 1002.95 1003.19 1003.25 1002.93 1003.21 1003.04 1003.38 1003.70 1004.12 1005.15 1006.04 1006.98 1007.50 1006.80 1006.78 1006.19 1005.20 1005.36 1005.76 1005.68 1005.60
1018.41 1017.75 1017.37 1016.66 1016.71 1013.75 1012.64 1012.36 1011.98 1012.22 1009.41 1005.96 1004.24 1003.69 1003.33 1002.57 1002.08 1001.48 1001.72 1001.98 1002.58 1003.40 1003.30 1003.06 1002.45 1002.36 1002.16 1002.18 1002.23 1003.02 1003.22 1003.77 1004.36 1005.73 1006.69 1006.27 1006.68 1006.66 1006.04 1004.22 1003.30 1003.84 1004.30 1004.56 1004.74
1017.71 1017.10 1016.66 1016.43 1014.74 1012.87 1013.08 1012.81 1012.93 1011.66 1008.65 1007.82 1006.71 1005.72 1005.06 1004.27 1003.64 1002.88 1002.54 1002.76 1003.18 1003.69 1003.64 1003.32 1002.58 1002.07 1001.68 1001.96 1002.07 1002.73 1003.82 1004.85 1005.58 1006.12 1006.18 1005.90 1005.94 1003.65 1002.79 1001.60 1002.11 1002.40 1002.59 1003.01 1003.67
1017.12 1016.18 1015.12 1014.38 1013.23 1013.45 1013.79 1013.79 1013.33 1011.06 1010.09 1009.01 1008.20 1006.90 1006.88 1006.71 1005.86 1005.20 1004.39 1004.20 1004.02 1004.21 1004.66 1004.12 1003.00 1001.71 1000.84 1001.29 1001.75 1002.40 1003.47 1004.93 1005.56 1005.89 1005.65 1004.81 1003.80 1001.96 1001.33 1000.49 1000.90 1001.86 1001.87 1002.14 1002.76
1016.70 1015.68 1014.94 1012.74 1012.63 1013.73 1014.49 1014.48 1013.34 1011.92 1010.76 1010.07 1009.14 1009.07 1009.13 1008.64 1008.24 1007.03 1006.62 1006.01 1005.46 1005.09 1005.59 1004.42 1002.84 1001.28 1000.70 1000.88 1001.38 1001.88 1002.88 1003.52 1004.91 1005.34 1005.40 1004.16 1002.79 1001.17 1000.31 1000.51 1001.16 1000.89 1000.75 1000.73 1001.07
1017.76 1016.68 1014.64 1011.92 1012.25 1013.57 1014.68 1014.78 1013.31 1012.12 1011.18 1010.88 1011.30 1011.46 1011.39 1010.90 1010.16 1009.22 1008.20 1007.49 1007.40 1006.60 1006.45 1004.91 1003.65 1001.71 1000.69 1000.62 1000.62 1001.15 1001.90 1003.57 1004.52 1005.29 1005.26 1003.83 1002.50 1000.84 1000.30 1000.19 999.91 999.78 999.48 999.07 999.74
1018.00 1016.84 1013.20 1012.06 1012.47 1014.16 1015.17 1014.46 1013.08 1012.24 1011.64 1011.95 1012.34 1012.58 1013.00 1012.96 1012.21 1011.10 1010.10 1008.84 1008.62 1007.70 1007.01 1005.97 1004.55 1002.10 1001.70 1001.07 1000.96 1001.46 1001.74 1002.94 1003.64 1004.23 1004.52 1003.61 1001.92 999.84 999.10 998.94 998.96 999.01 999.20 998.97 999.12
1018.55 1017.18 1012.92 1012.72 1013.95 1014.93 1015.14 1014.10 1013.33 1012.61 1012.23 1012.68 1013.03 1013.69 1014.05 1013.93 1013.49 1012.71 1011.36 1010.76 1010.22 1010.18 1009.08 1007.42 1006.00 1004.45 1002.58 1001.17 1000.81 1001.30 1001.79 1002.31 1003.66 1004.34 1003.68 1002.83 1000.76 998.44 998.07 998.37 998.66 998.82 998.78 998.25 998.42
1019.64 1017.68 1013.68 1013.44 1015.34 1015.99 1015.44 1014.50 1013.74 1013.02 1013.11 1013.62 1014.08 1014.38 1014.67 1014.94 1014.78 1013.68 1012.59 1011.60 1010.91 1011.04 1010.70 1009.32 1007.78 1006.52 1003.85 1002.39 1001.80 1001.84 1001.88 1002.18 1002.31 1002.85 1003.15 1002.60 1000.65 998.44 998.27 997.36 997.37 998.16 998.74 998.40 998.84
1020.20 1018.89 1016.50 1015.91 1016.53 1016.92 1016.60 1015.48 1014.50 1013.60 1013.59 1013.84 1014.33 1014.64 1015.17 1015.43 1015.44 1014.64 1013.96 1012.80 1012.17 1011.78 1011.40 1010.35 1009.33 1008.35 1006.98 1005.52 1004.54 1003.44 1002.50 1002.28 1001.88 1002.49 1002.39 1001.58 1000.23 999.02 998.28 997.70 997.38 997.28 997.64 997.60 997.77
1020.48 1019.96 1019.22 1018.75 1018.16 1018.00 1017.39 1016.54 1015.68 1014.79 1014.12 1014.15 1014.68 1015.00 1015.57 1016.04 1015.97 1015.59 1014.87 1014.03 1013.29 1012.60 1012.54 1012.03 1010.60 1008.83 1007.20 1005.78 1004.50 1003.45 1002.54 1001.60 1001.68 1000.89 1000.46 1000.54 999.98 998.76 998.25 997.14 997.11 996.97 997.24 997.86 997.88
1020.74 1020.35 1020.18 1019.86 1019.24 1018.70 1018.07 1017.30 1016.60 1015.92 1015.23 1014.83 1014.88 1015.16 1015.56 1016.19 1016.45 1016.50 1016.38 1015.88 1015.09 1013.66 1013.72 1013.24 1011.35 1009.30 1007.84 1005.76 1004.46 1003.15 1002.04 1001.19 1000.48 999.98 999.46 999.09 998.95 997.86 997.35 997.19 997.58 997.54 997.45 997.97 997.58
1020.52 1020.31 1020.55 1020.38 1020.06 1019.30 1019.14 1018.32 1017.50 1017.05 1015.67 1015.31 1015.29 1015.75 1015.95 1015.88 1016.35 1016.62 1016.44 1016.42 1016.05 1015.68 1015.01 1014.32 1012.56 1010.24 1008.51 1006.14 1004.47 1003.25 1001.93 1000.92 1000.19 999.28 998.85 998.73 998.38 997.82 997.90 997.78 997.08 997.12 997.73 997.92 998.96
Wind_Speed
21 22 22 22 22 22 21 21 20 20 20 20 20 19 18 16 16 3 8 14 10 14 7 9 5 6 4 5 6 4 2 6 9 6 5 14 11 12 8 17 8 8 9 20 17
21 21 22 23 23 22 21 21 21 20 19 20 19 17 15 14 4 10 16 14 15 15 7 10 8 8 5 5 5 7 5 7 11 11 12 20 21 17 9 18 9 15 16 17 15
22 22 23 24 24 23 24 23 21 20 20 19 18 17 13 9 5 9 3 19 11 16 7 5 2 5 8 3 6 7 11 9 7 2 16 16 19 11 20 9 19 24 24 19 15
23 24 24 25 25 25 24 23 23 21 20 18 16 15 14 2 5 0 4 2 14 12 4 2 2 4 5 9 6 9 13 9 7 2 12 23 16 11 18 12 23 28 27 21 19
25 25 26 26 26 26 25 24 22 20 20 17 15 13 3 1 14 4 5 8 10 9 10 7 5 5 5 4 3 9 16 15 18 14 15 17 18 22 12 23 20 22 21 20 16
25 25 25 25 26 26 27 26 23 21 19 15 12 7 1 5 7 5 7 6 7 8 8 9 7 8 6 6 5 6 14 11 9 18 12 14 13 10 17 23 22 23 22 19 18
24 25 26 27 28 28 30 28 27 22 20 15 9 4 2 20 4 6 1 4 5 8 7 9 13 2 1 7 6 5 8 10 8 8 19 17 6 16 24 25 26 22 21 18 18
25 26 27 29 29 30 32 32 30 24 18 10 7 4 10 7 5 9 4 6 7 8 7 9 8 6 4 6 9 6 2 3 3 9 13 11 9 20 24 25 23 21 19 16 15
25 27 28 29 30 30 32 35 32 12 1 10 5 4 13 11 4 9 10 7 4 7 7 10 7 9 6 1 5 2 5 4 6 10 19 6 11 20 22 22 22 19 18 16 14
25 26 27 29 31 29 34 31 21 3 5 5 4 2 7 5 3 7 3 6 5 4 4 5 3 3 3 4 7 5 4 2 4 4 3 11 14 23 22 22 22 19 18 16 16
25 26 27 29 31 31 18 8 10 7 6 9 7 7 14 7 5 10 4 5 4 4 7 4 3 6 9 5 5 5 3 3 5 5 7 12 20 23 21 19 19 18 18 17 17
25 26 28 31 33 32 2 5 4 7 14 11 17 19 24 5 9 17 6 2 4 7 3 2 7 8 6 6 7 9 5 6 7 3 6 12 7 7 15 17 22 20 19 19 16
25 25 27 30 35 5 4 5 8 8 4 10 6 7 9 14 11 15 5 3 4 6 6 7 9 9 9 10 10 9 7 4 6 3 7 7 5 2 3 4 8 18 21 18 20
25 25 26 30 6 7 7 8 12 2 5 11 6 9 6 6 5 13 12 8 5 10 6 7 11 9 15 14 9 10 7 9 8 4 5 4 6 6 3 6 3 8 16 20 19
25 24 22 19 5 5 8 9 14 6 4 4 4 1 4 10 1 4 7 6 7 7 8 10 10 13 13 18 13 9 9 9 8 5 7 1 5 7 4 7 11 11 16 20 22
25 25 25 5 2 12 9 14 4 6 6 6 5 8 7 5 3 2 4 4 4 6 5 9 4 9 14 16 13 6 5 1 3 6 3 9 7 7 7 17 17 13 18 24 22
27 27 21 4 6 2 6 5 6 4 7 9 8 10 8 8 9 6 4 8 6 5 5 2 13 5 5 7 9 5 6 2 2 1 8 10 4 8 14 15 22 19 21 25 21
29 30 7 8 7 2 5 6 2 4 5 7 8 9 6 15 9 9 8 3 4 4 1 6 8 8 5 9 9 8 11 8 8 5 6 5 7 12 25 23 19 18 17 20 21
27 5 5 6 9 4 6 4 5 5 6 8 7 8 8 14 9 12 6 4 7 2 5 5 9 6 6 8 10 4 4 11 6 1 3 5 4 6 6 21 14 19 18 22 24
7 5 5 7 6 5 6 4 4 5 5 7 6 6 7 11 10 12 6 3 12 14 14 7 5 7 11 2 6 10 6 2 3 6 5 5 3 6 6 19 21 21 20 20 24
2 5 6 3 5 6 3 6 5 5 8 7 5 4 6 6 5 6 6 6 22 16 17 4 4 16 5 6 5 1 3 2 5 7 7 2 7 8 19 22 25 22 16 11 23
3 2 5 6 4 0 2 2 8 6 6 8 6 7 4 7 5 5 4 8 17 18 10 5 1 5 10 7 4 5 7 9 7 5 2 5 8 8 13 15 14 9 13 22 21
3 5 5 5 3 4 6 4 5 7 6 4 5 5 4 4 6 4 4 15 15 16 10 9 6 6 9 6 8 4 3 4 4 6 8 7 7 2 3 8 16 14 11 8 4
3 4 6 6 2 3 6 5 6 6 3 3 3 2 4 4 2 8 10 9 17 16 20 9 3 5 5 5 4 7 13 7 7 6 6 6 5 1 3 8 5 8 11 11 9
1 3 1 5 5 8 4 5 5 5 3 3 1 2 3 3 5 6 5 9 10 9 11 7 4 2 8 10 8 10 13 13 3 10 11 9 8 9 9 10 9 9 7 8 15
2 3 5 4 4 6 7 5 5 14 3 4 4 4 1 4 7 13 5 4 5 6 8 7 5 0 4 4 6 12 11 9 9 7 4 8 5 7 7 4 8 3 10 7 4
3 3 4 5 6 3 3 6 10 7 6 6 1 3 3 6 1 5 6 6 7 6 7 5 5 4 4 9 9 4 6 4 6 6 9 8 10 4 4 3 8 6 7 9 4
Wind_Direction
354 351 347 344 340 338 335 333 331 330 325 322 321 321 319 319 314 179 244 222 186 174 138 137 198 205 204 228 203 135 81 232 256 250 187 146 135 154 109 134 166 196 145 155 156
351 349 345 342 339 336 332 329 328 327 324 322 321 320 320 323 286 241 241 218 203 156 180 183 181 175 212 223 197 157 172 251 221 202 162 154 151 142 127 153 102 108 127 149 157
348 346 343 341 338 334 330 328 326 325 324 322 322 321 320 318 303 247 262 219 181 169 199 189 247 178 220 302 214 209 224 249 269 153 151 144 144 134 140 160 155 146 154 162 161
346 344 341 338 336 333 329 325 323 321 321 320 322 316 317 254 288 220 51 119 183 174 197 252 250 186 216 211 255 256 260 217 271 163 167 154 153 148 170 172 160 156 160 159 164
344 341 339 335 332 330 327 323 320 316 314 314 317 318 346 310 250 259 117 97 141 162 190 197 209 178 218 227 263 247 271 282 281 198 178 141 159 162 164 141 152 152 160 164 164
341 338 335 333 331 329 325 322 317 311 304 299 304 311 300 259 252 243 148 148 142 162 181 181 219 201 288 251 190 275 291 292 263 177 146 128 129 105 149 146 154 162 166 173 170
339 337 334 333 332 330 325 320 315 307 295 287 274 240 247 240 244 325 105 215 190 169 170 207 224 342 93 301 281 276 310 327 197 169 138 124 89 145 153 156 160 166 170 174 172
339 336 334 333 332 330 325 320 311 309 297 266 217 197 245 254 243 272 181 268 227 211 198 197 199 225 181 276 334 350 351 324 222 170 147 106 174 151 158 156 164 168 170 177 183
336 334 332 331 329 329 323 315 306 315 151 135 127 165 266 296 243 242 180 222 189 215 216 236 147 203 256 216 360 3 246 251 320 193 155 125 135 161 166 161 165 169 172 179 189
335 332 330 329 327 330 323 309 293 108 138 191 248 15 270 269 4 299 238 200 205 242 295 190 108 167 30 123 207 205 225 328 239 176 126 125 146 168 171 166 169 175 179 184 191
331 330 331 329 326 327 334 351 13 348 52 219 221 257 289 313 332 318 344 330 168 128 201 245 131 206 226 173 230 276 275 339 294 182 101 156 152 171 175 174 171 179 184 191 195
330 332 334 329 324 323 333 16 301 260 300 254 242 249 254 6 309 294 104 76 158 207 151 264 212 213 224 246 233 250 263 270 315 50 89 149 129 136 178 186 178 183 188 192 194
329 334 335 330 322 350 295 254 306 17 296 298 237 225 226 159 215 261 137 136 237 200 179 187 224 197 221 238 242 246 211 201 210 112 65 86 359 28 164 109 202 198 192 191 190
331 334 334 338 17 326 296 293 338 37 22 279 247 259 173 134 237 218 192 154 222 201 184 222 223 204 212 236 197 245 207 226 240 134 199 170 222 255 278 291 179 239 202 197 195
330 328 328 330 275 314 256 334 324 60 355 320 317 259 146 163 171 251 156 107 203 201 141 227 173 205 219 225 215 249 189 213 209 137 119 14 100 263 286 256 245 231 213 206 201
327 323 328 329 233 241 309 305 40 49 259 323 23 332 9 298 259 335 142 112 179 226 254 211 237 193 215 232 237 219 240 297 159 113 139 211 161 247 214 224 225 238 227 208 202
323 320 318 255 236 337 348 24 55 159 328 1 341 329 335 310 30 349 160 155 176 137 241 286 250 233 204 212 248 185 93 270 343 134 209 184 178 225 227 223 222 221 211 202 203
322 316 262 216 244 340 27 48 191 289 22 348 322 315 48 16 10 12 10 345 319 117 360 182 264 211 217 179 199 198 165 159 187 173 206 216 219 240 202 220 223 215 214 200 202
324 324 292 257 225 102 64 54 224 359 337 343 348 30 342 0 359 9 15 297 24 187 183 188 246 270 222 207 153 236 142 191 174 166 94 210 284 296 212 212 194 203 196 194 200
326 339 276 261 137 72 72 255 282 344 17 26 42 40 1 347 10 8 344 354 353 10 5 283 253 221 263 267 238 165 189 125 344 176 246 261 217 235 188 198 199 218 196 200 199
30 356 265 315 77 54 153 233 291 1 46 41 19 357 31 1 315 333 315 328 17 338 341 306 218 256 136 180 225 4 183 112 130 148 176 218 267 215 195 196 199 217 203 194 199
16 359 275 38 47 86 169 282 2 353 33 39 72 47 49 1 347 332 290 345 353 359 330 308 277 276 226 224 188 151 228 173 169 261 209 159 260 287 165 173 201 239 196 200 192
342 275 302 97 45 329 313 3 3 13 47 51 37 45 30 13 343 302 335 345 348 356 4 325 337 350 344 356 15 13 333 202 147 109 207 143 260 289 316 213 184 159 224 240 198
4 349 328 34 80 35 6 347 353 28 91 123 155 51 23 340 217 291 308 311 338 337 341 319 240 151 225 239 217 289 308 307 189 137 168 214 206 283 200 146 191 164 205 239 225
67 292 288 331 339 330 341 356 355 342 12 155 208 192 132 283 315 283 328 331 335 327 353 30 245 262 274 261 266 269 285 292 246 226 178 203 194 238 216 172 180 126 115 189 236
65 35 351 292 306 341 359 9 7 342 279 258 165 240 203 216 207 286 328 31 277 324 4 349 273 114 285 269 283 272 273 276 281 208 169 149 228 248 192 255 93 86 120 90 40
337 346 94 291 333 28 342 353 340 350 314 37 133 117 299 260 198 251 206 226 260 294 339 294 343 355 306 314 323 325 300 258 284 248 171 175 211 179 54 226 104 43 73 49 124